Date String (YYYY-MM-DD hh:mm:ss) UTC,Instrument flags,absolute air pressure of the measurement (hPa),sample flow rate (lpm),inlet stack bypass flow (lpm),air temperature of the measurement (°C),ambient temperature measured by the external sensor (°C),aerosol sample conditioner tube jacket temperature (°C),OPC LED temperature (°C),internal box temperature (°C),relative humidity of the measurement (%),span deviation,mass concentration of particles derived from Lorenz-Mie calculation of OPC scattering (μg/m³),mass concentration of particles derived from Lorenz-Mie calculation of OPC scattering (μg/m³),mass concentration of particles derived from Lorenz-Mie calculation of OPC scattering (μg/m³)
DateTimeUTC,F1_M11,P_M11,Q1_M11,Q2_M11,T1_M11,T2_M11,T3_M11,T4_M11,T5_M11,U1_M11,ZSPAN_M11,X2_M11,X0_M11,X1_M11
2023-11-05 20:00:00,SystemResetWarning,0824.0,4.99,000.00,027.2,025.6,000.0,035.5,028.6,9.1,0000.0,0002.53,0008.39,0001.81
2023-11-05 20:01:00,SystemResetWarning,0824.0,4.99,000.00,027.3,025.8,000.0,035.5,028.7,9.1,0000.0,0002.51,0008.10,0001.79
2023-11-05 20:02:00,SystemResetWarning,0824.1,5.00,000.00,027.3,026.0,000.0,035.5,028.8,9.1,0000.0,0002.49,0008.54,0001.78
2023-11-05 20:03:00,SystemResetWarning,0824.0,5.01,000.00,027.3,026.2,000.0,035.5,028.9,9.2,0000.0,0002.49,0008.06,0001.79
2023-11-05 20:04:00,SystemResetWarning,0824.1,5.00,000.00,027.4,026.3,000.0,035.6,028.9,8.8,0000.0,0002.47,0008.03,0001.79
2023-11-05 20:05:00,SystemResetWarning,0824.0,5.00,000.00,027.4,026.4,000.0,035.6,029.0,8.9,0000.0,0002.44,0008.01,0001.79
2023-11-05 20:06:00,SystemResetWarning,0824.0,5.00,000.00,027.5,026.6,000.0,035.6,029.1,8.9,0000.0,0002.41,0007.96,0001.79
2023-11-05 20:07:00,SystemResetWarning,0824.0,4.99,000.00,027.5,026.7,000.0,035.6,029.1,8.8,0000.0,0002.39,0009.25,0001.78
2023-11-05 20:08:00,SystemResetWarning,0824.0,4.99,000.00,027.5,026.7,000.0,035.7,029.2,8.8,0000.0,0002.42,0010.32,0001.78
2023-11-05 20:09:00,SystemResetWarning,0824.0,5.01,000.00,027.6,026.8,000.0,035.7,029.2,8.9,0000.0,0002.44,0009.49,0001.79
2023-11-05 20:10:00,SystemResetWarning,0824.1,5.01,000.00,027.6,026.9,000.0,035.7,029.3,8.9,0000.0,0002.47,0009.10,0001.78
2023-11-05 20:11:00,SystemResetWarning,0824.0,5.00,000.00,027.7,026.6,000.0,035.7,029.3,8.8,0000.0,0002.41,0009.02,0001.77
2023-11-05 20:12:00,SystemResetWarning,0824.0,4.99,000.00,027.6,024.9,000.0,035.7,029.0,8.5,0000.0,0002.40,0009.39,0001.77
2023-11-05 20:13:00,SystemResetWarning,0824.0,5.03,000.00,027.5,023.7,000.0,035.7,028.7,8.6,0000.0,0002.40,0008.58,0001.78
2023-11-05 20:14:00,SystemResetWarning,0824.0,5.00,000.00,027.4,023.9,000.0,035.6,028.6,8.8,0000.0,0002.38,0008.37,0001.79
2023-11-05 20:15:00,SystemResetWarning,0823.9,5.00,000.00,027.3,024.2,000.0,035.6,028.3,8.9,0000.0,0002.38,0008.38,0001.79
2023-11-05 20:16:00,SystemResetWarning,0823.9,4.99,000.00,027.2,024.6,000.0,035.6,028.4,8.8,0000.0,0002.43,0008.50,0001.81
2023-11-05 20:17:00,SystemResetWarning,0824.0,5.00,000.00,027.2,025.0,000.0,035.5,028.5,8.9,0000.0,0002.45,0008.51,0001.81
2023-11-05 20:18:00,SystemResetWarning,0823.9,5.01,000.00,027.2,025.3,000.0,035.5,028.6,8.9,0000.0,0002.47,0007.23,0001.83
2023-11-05 20:19:00,SystemResetWarning,0824.0,5.01,000.00,027.3,025.6,000.0,035.5,028.7,8.8,0000.0,0002.41,0005.20,0001.84
2023-11-05 20:20:00,SystemResetWarning,0823.9,4.99,000.00,027.3,025.8,000.0,035.5,028.7,8.7,0000.0,0002.39,0007.41,0001.82
2023-11-05 20:21:00,SystemResetWarning,0823.9,4.99,000.00,027.3,026.0,000.0,035.5,028.8,8.7,0000.0,0002.33,0007.46,0001.82
2023-11-05 20:22:00,SystemResetWarning,0823.9,5.01,000.00,027.3,026.1,000.0,035.5,028.8,8.8,0000.0,0002.34,0008.06,0001.83
2023-11-05 20:23:00,SystemResetWarning,0824.0,5.01,000.00,027.4,026.3,000.0,035.6,028.9,8.7,0000.0,0002.41,0008.24,0001.85
2023-11-05 20:24:00,SystemResetWarning,0824.0,5.00,000.00,027.4,026.4,000.0,035.6,029.0,8.7,0000.0,0002.37,0008.07,0001.83
2023-11-05 20:25:00,SystemResetWarning,0823.9,5.00,000.00,027.5,026.5,000.0,035.6,029.1,8.7,0000.0,0002.36,0008.84,0001.83
2023-11-05 20:26:00,SystemResetWarning,0823.9,5.00,000.00,027.5,026.6,000.0,035.6,029.1,8.7,0000.0,0002.40,0009.11,0001.84
2023-11-05 20:27:00,SystemResetWarning,0823.9,5.01,000.00,027.5,026.7,000.0,035.7,029.2,8.6,0000.0,0002.41,0009.09,0001.85
2023-11-05 20:28:00,SystemResetWarning,0824.0,5.00,000.00,027.6,026.8,000.0,035.7,029.2,8.6,0000.0,0002.43,0009.08,0001.84
2023-11-05 20:29:00,SystemResetWarning,0823.9,4.99,000.00,027.6,026.9,000.0,035.7,029.3,8.7,0000.0,0002.44,0009.14,0001.84
2023-11-05 20:30:00,SystemResetWarning,0823.8,5.00,000.00,027.7,026.9,000.0,035.7,029.3,8.7,0000.0,0002.41,0009.76,0001.84
2023-11-05 20:31:00,SystemResetWarning,0823.8,4.99,000.00,027.7,026.3,000.0,035.8,029.3,8.6,0000.0,0002.43,0009.56,0001.84
2023-11-05 20:32:00,SystemResetWarning,0824.0,5.00,000.00,027.6,024.4,000.0,035.7,028.9,8.7,0000.0,0002.50,0008.98,0001.83
2023-11-05 20:33:00,SystemResetWarning,0823.9,5.00,000.00,027.5,023.6,000.0,035.7,028.7,8.7,0000.0,0002.55,0008.63,0001.83
2023-11-05 20:34:00,SystemResetWarning,0823.9,5.01,000.00,027.4,023.9,000.0,035.6,028.4,8.8,0000.0,0002.55,0008.28,0001.80
2023-11-05 20:35:00,SystemResetWarning,0823.9,5.00,000.00,027.3,024.3,000.0,035.6,028.3,8.9,0000.0,0002.57,0008.28,0001.79
2023-11-05 20:36:00,SystemResetWarning,0824.0,4.98,000.00,027.3,024.7,000.0,035.6,028.4,8.8,0000.0,0002.64,0008.14,0001.80
2023-11-05 20:37:00,SystemResetWarning,0824.0,5.00,000.00,027.2,025.0,000.0,035.6,028.5,8.8,0000.0,0002.69,0008.82,0001.81
2023-11-05 20:38:00,SystemResetWarning,0824.1,5.02,000.00,027.2,025.3,000.0,035.5,028.6,8.9,0000.0,0002.67,0009.13,0001.81
2023-11-05 20:39:00,SystemResetWarning,0824.2,4.98,000.00,027.3,025.6,000.0,035.5,028.7,8.9,0000.0,0002.63,0009.03,0001.81
2023-11-05 20:40:00,SystemResetWarning,0824.2,5.00,000.00,027.3,025.8,000.0,035.5,028.8,8.9,0000.0,0002.60,0008.98,0001.80
2023-11-05 20:41:00,SystemResetWarning,0824.3,5.02,000.00,027.3,026.0,000.0,035.5,028.9,9.0,0000.0,0002.61,0008.61,0001.80
2023-11-05 20:42:00,SystemResetWarning,0824.3,5.00,000.00,027.4,026.2,000.0,035.5,028.9,9.1,0000.0,0002.59,0007.75,0001.80
2023-11-05 20:43:00,SystemResetWarning,0824.3,5.00,000.00,027.4,026.4,000.0,035.6,029.0,9.0,0000.0,0002.54,0007.86,0001.80
2023-11-05 20:44:00,SystemResetWarning,0824.3,5.00,000.00,027.5,026.5,000.0,035.6,029.1,8.9,0000.0,0002.47,0007.87,0001.80
2023-11-05 20:45:00,SystemResetWarning,0824.3,5.00,000.00,027.5,026.6,000.0,035.6,029.1,8.8,0000.0,0002.42,0007.77,0001.81
2023-11-05 20:46:00,SystemResetWarning,0824.3,5.00,000.00,027.6,026.7,000.0,035.6,029.2,8.8,0000.0,0002.38,0007.69,0001.81
2023-11-05 20:47:00,SystemResetWarning,0824.4,5.01,000.00,027.6,026.8,000.0,035.7,029.2,8.9,0000.0,0002.34,0006.82,0001.81
2023-11-05 20:48:00,SystemResetWarning,0824.4,5.00,000.00,027.7,026.9,000.0,035.7,029.3,8.8,0000.0,0002.25,0005.47,0001.80
2023-11-05 20:49:00,SystemResetWarning,0824.4,5.01,000.00,027.7,027.0,000.0,035.7,029.3,8.8,0000.0,0002.20,0004.15,0001.78
2023-11-05 20:50:00,SystemResetWarning,0824.4,4.99,000.00,027.7,026.6,000.0,035.8,029.4,8.8,0000.0,0002.17,0004.11,0001.77
2023-11-05 20:51:00,SystemResetWarning,0824.4,4.99,000.00,027.7,024.8,000.0,035.7,029.1,8.8,0000.0,0002.21,0004.18,0001.78
2023-11-05 20:52:00,SystemResetWarning,0824.4,5.01,000.00,027.6,023.7,000.0,035.7,028.8,8.9,0000.0,0002.16,0003.66,0001.77
2023-11-05 20:53:00,SystemResetWarning,0824.4,5.01,000.00,027.5,023.9,000.0,035.7,028.6,9.0,0000.0,0002.16,0003.68,0001.77
2023-11-05 20:54:00,SystemResetWarning,0824.4,5.00,000.00,027.3,024.3,000.0,035.6,028.4,9.1,0000.0,0002.16,0003.63,0001.76
2023-11-05 20:55:00,SystemResetWarning,0824.3,5.00,000.00,027.3,024.7,000.0,035.6,028.4,9.1,0000.0,0002.11,0003.73,0001.76
2023-11-05 20:56:00,SystemResetWarning,0824.3,5.00,000.00,027.3,025.0,000.0,035.6,028.6,9.2,0000.0,0002.11,0003.70,0001.76
2023-11-05 20:57:00,SystemResetWarning,0824.4,5.00,000.00,027.3,025.4,000.0,035.6,028.6,9.1,0000.0,0002.09,0003.61,0001.75
2023-11-05 20:58:00,SystemResetWarning,0824.4,5.01,000.00,027.3,025.6,000.0,035.6,028.8,9.1,0000.0,0002.08,0003.68,0001.74
2023-11-05 20:59:00,SystemResetWarning,0824.4,5.00,000.00,027.3,025.9,000.0,035.6,028.8,9.2,0000.0,0002.09,0003.69,0001.74
